| time (UTC) | temp F | wind direction | speed knots | gust knots | rain 1hr in | rain 24hr in | rain mn in | humidity % | barometer mb |
| 20260506005521 | 67 | 0.0 | 0.9 | 0.00 | 0.00 | 0.00 | 52 | 1013.7 | |
| 20260506004521 | 68 | 0.0 | 0.9 | 0.00 | 0.00 | 0.00 | 52 | 1013.7 | |
| 20260506003521 | 68 | 0.0 | 0.9 | 0.00 | 0.00 | 0.00 | 50 | 1013.5 | |
| 20260506002520 | 69 | 0.0 | 1.7 | 0.00 | 0.00 | 0.00 | 48 | 1013.5 | |
| 20260506001520 | 69 | 0.0 | 0.9 | 0.00 | 0.00 | 0.00 | 47 | 1013.5 | |
| 20260506000520 | 69 | 0.0 | 1.7 | 0.00 | 0.00 | 0.00 | 47 | 1013.3 | |
| 20260505235521 | 69 | 0.0 | 1.7 | 0.00 | 0.00 | 0.00 | 46 | 1013.6 | |
| 20260505234520 | 69 | 0.0 | 1.7 | 0.00 | 0.00 | 0.00 | 45 | 1013.4 | |
| 20260505233546 | 70 | 158 | 0.9 | 4.3 | 0.00 | 0.00 | 0.00 | 45 | 1013.4 |
| 20260505232521 | 70 | 135 | 0.9 | 2.6 | 0.00 | 0.00 | 0.00 | 45 | 1013.5 |
| 20260505231546 | 70 | 0.0 | 1.7 | 0.00 | 0.00 | 0.00 | 46 | 1013.4 | |
| 20260505230520 | 71 | 135 | 0.9 | 2.6 | 0.00 | 0.00 | 0.00 | 45 | 1013.4 |
| 20260505225520 | 71 | 90 | 0.9 | 1.7 | 0.00 | 0.00 | 0.00 | 44 | 1013.5 |
| 20260505224521 | 71 | 0.0 | 1.7 | 0.00 | 0.00 | 0.00 | 43 | 1013.5 | |
| 20260505223520 | 71 | 135 | 1.7 | 3.5 | 0.00 | 0.00 | 0.00 | 42 | 1013.5 |
| 20260505222521 | 72 | 135 | 0.9 | 2.6 | 0.00 | 0.00 | 0.00 | 43 | 1013.4 |
| 20260505221520 | 72 | 135 | 1.7 | 4.3 | 0.00 | 0.00 | 0.00 | 42 | 1013.3 |
| 20260505220520 | 72 | 113 | 0.9 | 2.6 | 0.00 | 0.00 | 0.00 | 42 | 1013.5 |
| 20260505215520 | 72 | 0 | 1.7 | 4.3 | 0.00 | 0.00 | 0.00 | 43 | 1013.3 |
| 20260505214520 | 73 | 0.0 | 1.7 | 0.00 | 0.00 | 0.00 | 42 | 1013.4 | |
| 20260505213546 | 74 | 135 | 0.9 | 3.5 | 0.00 | 0.00 | 0.00 | 43 | 1013.7 |
| 20260505212520 | 74 | 23 | 0.9 | 4.3 | 0.00 | 0.00 | 0.00 | 41 | 1013.6 |
| 20260505211520 | 74 | 158 | 0.9 | 1.7 | 0.00 | 0.00 | 0.00 | 42 | 1013.7 |
| 20260505210545 | 74 | 0.0 | 2.6 | 0.00 | 0.00 | 0.00 | 41 | 1013.9 | |
| 20260505205520 | 74 | 135 | 0.9 | 2.6 | 0.00 | 0.00 | 0.00 | 42 | 1014.1 |
| 20260505204520 | 73 | 158 | 0.9 | 4.3 | 0.00 | 0.00 | 0.00 | 44 | 1013.9 |
| 20260505203547 | 72 | 225 | 0.9 | 3.5 | 0.00 | 0.00 | 0.00 | 44 | 1014.0 |
| 20260505202548 | 72 | 135 | 0.9 | 4.3 | 0.00 | 0.00 | 0.00 | 43 | 1013.8 |
| 20260505201522 | 72 | 113 | 1.7 | 5.2 | 0.00 | 0.00 | 0.00 | 41 | 1013.9 |
| 20260505200546 | 72 | 135 | 0.9 | 2.6 | 0.00 | 0.00 | 0.00 | 41 | 1014.0 |
| 20260505195522 | 73 | 113 | 0.9 | 6.1 | 0.00 | 0.00 | 0.00 | 40 | 1014.0 |
| 20260505194522 | 73 | 203 | 1.7 | 4.3 | 0.00 | 0.00 | 0.00 | 41 | 1014.2 |
| 20260505193522 | 74 | 113 | 1.7 | 3.5 | 0.00 | 0.00 | 0.00 | 40 | 1014.2 |
| 20260505192522 | 74 | 135 | 0.9 | 4.3 | 0.00 | 0.00 | 0.00 | 40 | 1014.3 |
| 20260505191522 | 75 | 180 | 0.9 | 2.6 | 0.00 | 0.00 | 0.00 | 41 | 1014.6 |
| 20260505190522 | 74 | 248 | 0.9 | 4.3 | 0.00 | 0.00 | 0.00 | 42 | 1014.8 |
| 20260505185522 | 75 | 113 | 1.7 | 5.2 | 0.00 | 0.00 | 0.00 | 42 | 1014.9 |
| 20260505184522 | 76 | 113 | 1.7 | 3.5 | 0.00 | 0.00 | 0.00 | 40 | 1015.1 |
| 20260505183612 | 77 | 0.0 | 4.3 | 0.00 | 0.00 | 0.00 | 39 | 1015.3 | |
| 20260505182522 | 78 | 0.0 | 1.7 | 0.00 | 0.00 | 0.00 | 38 | 1015.4 | |
| 20260505181522 | 80 | 0.0 | 0.9 | 0.00 | 0.00 | 0.00 | 35 | 1015.6 | |
| 20260505180547 | 79 | 113 | 0.9 | 2.6 | 0.00 | 0.00 | 0.00 | 36 | 1015.8 |
| 20260505175522 | 80 | 135 | 0.9 | 2.6 | 0.00 | 0.00 | 0.00 | 34 | 1016.3 |
| 20260505174522 | 79 | 135 | 0.9 | 1.7 | 0.00 | 0.00 | 0.00 | 35 | 1016.1 |
| 20260505173522 | 79 | 203 | 0.9 | 3.5 | 0.00 | 0.00 | 0.00 | 36 | 1016.7 |
| 20260505172547 | 78 | 135 | 0.9 | 2.6 | 0.00 | 0.00 | 0.00 | 37 | 1016.8 |
| 20260505171522 | 78 | 90 | 0.9 | 2.6 | 0.00 | 0.00 | 0.00 | 37 | 1016.9 |
| 20260505170522 | 75 | 135 | 0.9 | 1.7 | 0.00 | 0.00 | 0.00 | 40 | 1016.6 |
| 20260505165522 | 74 | 135 | 1.7 | 3.5 | 0.00 | 0.00 | 0.00 | 40 | 1016.6 |
| 20260505164522 | 75 | 113 | 1.7 | 3.5 | 0.00 | 0.00 | 0.00 | 40 | 1016.7 |
| 20260505163522 | 74 | 0.0 | 0.9 | 0.00 | 0.00 | 0.00 | 44 | 1016.7 | |
| 20260505162522 | 74 | 23 | 0.9 | 1.7 | 0.00 | 0.00 | 0.00 | 41 | 1016.7 |
| 20260505161522 | 75 | 0 | 0.9 | 2.6 | 0.00 | 0.00 | 0.00 | 42 | 1017.0 |
| 20260505160522 | 74 | 0.0 | 0.9 | 0.00 | 0.00 | 0.00 | 43 | 1017.1 | |
| 20260505152522 | 69 | 113 | 0.9 | 2.6 | 0.00 | 0.00 | 0.00 | 48 | 1017.7 |
| 20260505151522 | 68 | 0.0 | 1.7 | 0.00 | 0.00 | 0.00 | 48 | 1017.7 | |
| 20260505150522 | 68 | 0.0 | 0.9 | 0.00 | 0.00 | 0.00 | 50 | 1017.8 | |
| 20260505140521 | 59 | 0.0 | 0.9 | 0.00 | 0.00 | 0.00 | 71 | 1017.0 | |
| 20260505124521 | 49 | 0.0 | 0.0 | 0.00 | 0.00 | 0.00 | 90 | 1016.6 | |
| 20260505123521 | 48 | 0.0 | 0.0 | 0.00 | 0.00 | 0.00 | 89 | 1016.6 | |
| 20260505122547 | 47 | 0.0 | 0.0 | 0.00 | 0.00 | 0.00 | 89 | 1016.8 | |
| 20260505121546 | 47 | 0.0 | 0.0 | 0.00 | 0.00 | 0.00 | 90 | 1016.9 | |
| 20260505120546 | 46 | 0.0 | 0.0 | 0.00 | 0.00 | 0.00 | 90 | 1016.8 | |
| 20260505115521 | 45 | 0.0 | 0.0 | 0.00 | 0.00 | 0.00 | 90 | 1016.3 | |
| 20260505114521 | 45 | 0.0 | 0.0 | 0.00 | 0.00 | 0.00 | 90 | 1016.2 | |
| 20260505113521 | 45 | 0.0 | 0.0 | 0.00 | 0.00 | 0.00 | 90 | 1016.3 | |
| 20260505112521 | 45 | 0.0 | 0.0 | 0.00 | 0.00 | 0.00 | 90 | 1016.2 | |
| 20260505111521 | 45 | 0.0 | 0.0 | 0.00 | 0.00 | 0.00 | 90 | 1015.8 | |
| 20260505110522 | 45 | 0.0 | 0.0 | 0.00 | 0.00 | 0.00 | 90 | 1015.8 | |
| 20260505101521 | 45 | 0.0 | 0.0 | 0.00 | 0.00 | 0.00 | 89 | 1016.1 | |
| 20260505100521 | 46 | 0.0 | 0.0 | 0.00 | 0.00 | 0.00 | 89 | 1016.3 | |
| 20260505095521 | 46 | 0.0 | 0.0 | 0.00 | 0.00 | 0.00 | 88 | 1016.2 | |
| 20260505094521 | 46 | 0.0 | 0.0 | 0.00 | 0.00 | 0.00 | 88 | 1016.1 | |
| 20260505093521 | 46 | 0.0 | 0.0 | 0.00 | 0.00 | 0.00 | 88 | 1016.2 | |
| 20260505092521 | 47 | 0.0 | 0.0 | 0.00 | 0.00 | 0.00 | 87 | 1016.1 | |
| 20260505091521 | 47 | 0.0 | 0.0 | 0.00 | 0.00 | 0.00 | 87 | 1016.0 | |
| 20260505090521 | 48 | 0.0 | 0.0 | 0.00 | 0.00 | 0.00 | 86 | 1016.4 | |
| 20260505085611 | 48 | 0.0 | 0.0 | 0.00 | 0.00 | 0.00 | 86 | 1016.2 | |
| 20260505084521 | 48 | 0.0 | 0.0 | 0.00 | 0.00 | 0.00 | 85 | 1016.2 | |
| 20260505083546 | 49 | 0.0 | 0.0 | 0.00 | 0.00 | 0.00 | 85 | 1016.3 | |
| 20260505082611 | 49 | 0.0 | 0.0 | 0.00 | 0.00 | 0.00 | 85 | 1016.4 | |
| 20260505081521 | 49 | 0.0 | 0.0 | 0.00 | 0.00 | 0.00 | 84 | 1016.3 | |
| 20260505080521 | 50 | 0.0 | 0.0 | 0.00 | 0.00 | 0.00 | 84 | 1016.3 | |
| 20260505075521 | 50 | 0.0 | 0.0 | 0.00 | 0.00 | 0.00 | 84 | 1016.4 | |
| 20260505074521 | 50 | 0.0 | 0.0 | 0.00 | 0.00 | 0.00 | 84 | 1016.1 | |
| 20260505073521 | 50 | 0.0 | 0.0 | 0.00 | 0.00 | 0.00 | 82 | 1016.2 | |
| 20260505072521 | 51 | 0.0 | 0.0 | 0.00 | 0.00 | 0.00 | 82 | 1016.2 | |
| 20260505071521 | 51 | 0.0 | 0.0 | 0.00 | 0.00 | 0.00 | 81 | 1016.2 | |
| 20260505070521 | 51 | 0.0 | 0.0 | 0.00 | 0.00 | 0.00 | 80 | 1016.1 | |
| 20260505065521 | 52 | 0.0 | 0.0 | 0.00 | 0.00 | 0.00 | 79 | 1016.1 | |
| 20260505064521 | 52 | 0.0 | 0.0 | 0.00 | 0.00 | 0.00 | 77 | 1016.4 | |
| 20260505063521 | 53 | 0.0 | 0.0 | 0.00 | 0.00 | 0.00 | 76 | 1016.2 | |
| 20260505062546 | 53 | 0.0 | 0.0 | 0.00 | 0.00 | 0.00 | 75 | 1016.4 | |
| 20260505061521 | 54 | 0.0 | 0.0 | 0.00 | 0.00 | 0.00 | 74 | 1016.4 | |
| 20260505060521 | 54 | 0.0 | 0.0 | 0.00 | 0.00 | 0.00 | 72 | 1016.2 | |
| 20260505055521 | 55 | 0.0 | 0.0 | 0.00 | 0.00 | 0.00 | 71 | 1016.3 | |
| 20260505054520 | 56 | 0.0 | 0.0 | 0.00 | 0.00 | 0.00 | 69 | 1016.5 | |
| 20260505053521 | 57 | 0.0 | 0.0 | 0.00 | 0.00 | 0.00 | 68 | 1016.2 | |
| 20260505052521 | 57 | 0.0 | 0.0 | 0.00 | 0.00 | 0.00 | 66 | 1016.6 | |
| 20260505051521 | 58 | 0.0 | 0.0 | 0.00 | 0.00 | 0.00 | 64 | 1016.4 | |
| 20260505050521 | 59 | 0.0 | 0.0 | 0.00 | 0.00 | 0.00 | 62 | 1016.4 | |
| 20260505041521 | 61 | 0.0 | 1.7 | 0.00 | 0.00 | 0.00 | 58 | 1016.5 | |
| 20260505040521 | 61 | 0.0 | 1.7 | 0.00 | 0.00 | 0.00 | 56 | 1016.3 | |
| 20260505035521 | 62 | 0.0 | 0.9 | 0.00 | 0.00 | 0.00 | 57 | 1016.5 | |
| 20260505034611 | 63 | 0.0 | 0.9 | 0.00 | 0.00 | 0.00 | 53 | 1016.3 | |
| 20260505033546 | 63 | 0.0 | 0.9 | 0.00 | 0.00 | 0.00 | 53 | 1016.0 | |
| 20260505032521 | 64 | 0.0 | 0.9 | 0.00 | 0.00 | 0.00 | 51 | 1016.2 | |
| 20260505031521 | 64 | 0.0 | 0.0 | 0.00 | 0.00 | 0.00 | 51 | 1016.5 | |
| 20260505030521 | 64 | 0.0 | 0.9 | 0.00 | 0.00 | 0.00 | 51 | 1016.4 | |
| 20260505025521 | 64 | 0.0 | 0.9 | 0.00 | 0.00 | 0.00 | 51 | 1016.5 | |
| 20260505024520 | 64 | 0.0 | 0.9 | 0.00 | 0.00 | 0.00 | 51 | 1016.5 | |
| 20260505023521 | 64 | 0.0 | 0.9 | 0.00 | 0.00 | 0.00 | 51 | 1016.2 | |
| 20260505022521 | 64 | 0.0 | 1.7 | 0.00 | 0.00 | 0.00 | 51 | 1016.2 | |
| 20260505021611 | 64 | 0.0 | 0.9 | 0.00 | 0.00 | 0.00 | 52 | 1016.1 | |
| 20260505020521 | 63 | 0.0 | 0.9 | 0.00 | 0.00 | 0.00 | 53 | 1015.7 | |
| 20260505015521 | 63 | 0.0 | 0.9 | 0.00 | 0.00 | 0.00 | 55 | 1015.7 | |
| 20260505014521 | 64 | 0.0 | 0.0 | 0.00 | 0.00 | 0.00 | 54 | 1015.6 | |
| 20260505013520 | 64 | 0.0 | 0.9 | 0.00 | 0.00 | 0.00 | 55 | 1015.2 | |
| 20260505012521 | 64 | 0.0 | 0.9 | 0.00 | 0.00 | 0.00 | 54 | 1014.9 | |
| 20260505011521 | 65 | 0.0 | 0.9 | 0.00 | 0.00 | 0.00 | 53 | 1014.9 | |
| 20260505010611 | 65 | 0.0 | 0.9 | 0.00 | 0.00 | 0.00 | 52 | 1014.7 |